Change the Weather History Date:

Tuesday, November 1, 2011

  Actual Average Record
Temperature  
Mean Temperature 42 °F -  
Max Temperature 51 °F 55 °F 73 °F (1956)
Min Temperature 33 °F 38 °F 25 °F (1969)
Degree Days  
Heating Degree Days 23    
Moisture  
Dew Point 37 °F    
Average Humidity 77    
Maximum Humidity 93    
Minimum Humidity 62    
Precipitation  
Precipitation 0.00 in - - ()
Sea Level Pressure  
Sea Level Pressure 30.32 in    
Wind  
Wind Speed 6 mph (NE)    
Max Wind Speed 13 mph    
Max Gust Speed 21 mph    
Visibility 10 miles    
Events      
Averages and records for this station are not official NWS values.
T = Trace of Precipitation, MM = Missing Value Source: NWS Daily Summary

Daily Weather History Graph

Daily Weather History Graph

Search for Another Location

Airport or City:

Trip Planner

Search our weather history database for the weather conditions in past years. The results will help you decide how hot, cold, wet, or windy it might be!

Date:

Astronomy

Nov. 01, 2011 Rise Set
Actual Time 7:12 AM EDT 5:36 PM EDT
Civil Twilight 6:43 AM EDT 6:04 PM EDT
Nautical Twilight 6:11 AM EDT 6:37 PM EDT
Astronomical Twilight 5:38 AM EDT 7:09 PM EDT
Moon 12:58 PM EDT 11:14 PM EDT
Length of Visible Light 11h 20m
Length of Day
10h 23m
Waxing Crescent, 39% of the Moon is Illuminated
Nov 1
Waxing Crescent
Nov 2
First Quarter
Nov 10
Full
Nov 18
Last Quarter
Nov 25
New

Hourly Weather History & Observations

Time (EDT) Temp. Windchill Dew Point Humidity Pressure Visibility Wind Dir Wind Speed Gust Speed Precip Events Conditions
12:56 AM 37.9 °F 34.4 °F 34.0 °F 86% 30.36 in 10.0 mi ENE 4.6 mph - N/A   Clear
1:56 AM 37.0 °F - 35.1 °F 93% 30.35 in 10.0 mi Calm Calm - N/A   Clear
2:56 AM 35.1 °F - 33.1 °F 92% 30.37 in 10.0 mi Calm Calm - N/A   Clear
3:56 AM 33.8 °F - 32.0 °F 93% 30.37 in 10.0 mi Calm Calm - N/A   Clear
4:56 AM 37.0 °F 33.3 °F 35.1 °F 93% 30.35 in 10.0 mi NE 4.6 mph - N/A   Clear
5:56 AM 37.9 °F - 36.0 °F 93% 30.34 in 10.0 mi Calm Calm - N/A   Clear
6:56 AM 41.0 °F 36.4 °F 37.0 °F 86% 30.32 in 10.0 mi North 6.9 mph - N/A   Clear
7:56 AM 42.8 °F 40.1 °F 37.4 °F 81% 30.33 in 10.0 mi NE 4.6 mph - N/A   Clear
8:56 AM 44.6 °F 40.7 °F 37.4 °F 76% 30.33 in 10.0 mi NNE 6.9 mph - N/A   Clear
9:56 AM 46.9 °F - 39.0 °F 74% 30.34 in 10.0 mi NE 6.9 mph - N/A   Clear
10:56 AM 48.0 °F - 39.0 °F 71% 30.34 in 10.0 mi NE 8.1 mph - N/A   Mostly Cloudy
11:56 AM 48.9 °F - 37.9 °F 66% 30.33 in 10.0 mi ENE 11.5 mph - N/A   Mostly Cloudy
12:56 PM 50.0 °F - 37.4 °F 62% 30.29 in 10.0 mi NE 10.4 mph - N/A   Scattered Clouds
1:56 PM 50.0 °F - 37.9 °F 63% 30.29 in 10.0 mi NE 12.7 mph - N/A   Mostly Cloudy
2:56 PM 50.0 °F - 37.9 °F 63% 30.29 in 10.0 mi ENE 11.5 mph 20.7 mph N/A   Scattered Clouds
3:56 PM 51.8 °F - 39.2 °F 62% 30.28 in 10.0 mi NE 12.7 mph 20.7 mph N/A   Partly Cloudy
4:56 PM 48.2 °F - 39.2 °F 71% 30.29 in 10.0 mi NNE 12.7 mph - N/A   Overcast
5:56 PM 48.0 °F - 39.9 °F 74% 30.30 in 10.0 mi NE 9.2 mph - N/A   Clear
6:56 PM 46.9 °F - 39.9 °F 77% 30.30 in 10.0 mi NE 10.4 mph - N/A   Clear
7:56 PM 46.0 °F 43.1 °F 39.9 °F 79% 30.31 in 10.0 mi NNE 5.8 mph - N/A   Clear
8:56 PM 46.0 °F 41.4 °F 39.0 °F 76% 30.31 in 10.0 mi NNE 9.2 mph - N/A   Clear
9:56 PM 46.9 °F - 37.9 °F 71% 30.30 in 10.0 mi NNE 11.5 mph - N/A   Partly Cloudy
10:56 PM 46.0 °F 41.9 °F 37.9 °F 73% 30.30 in 10.0 mi NE 8.1 mph - N/A   Clear
11:56 PM 45.0 °F 41.2 °F 37.9 °F 76% 30.30 in 10.0 mi NNE 6.9 mph - N/A   Clear